Hourly Data Report for October 21, 2014

All times are specified in Local Standard Time (LST). Add 1 hour to adjust for Daylight Saving Time where and when it is observed.

CLYDE RIVER A
NUNAVUT

70°29'09.000" N
68°31'01.000" W
26.50 m
2400804
71090
YCY

Download Data

Hourly Data (October 2014)
Hourly Data Report for October 21, 2014
Temp Definition
°C
Dew Point Temp Definition
°C
Rel Hum Definition
%
Wind Dir Definition
10's deg

Wind Spd Definition
km/h
Visibility Definition
km
Stn Press Definition
kPa
Hmdx Definition


Wind Chill Definition


Weather Definition


TIME
00:00 Legend Double Dagger -5.2 -5.7 96 11 5 8.1 100.42   -7 Snow
01:00 Legend Double Dagger -4.8 -5.5 95 9 4 2.8 100.41   -7 Snow
02:00 Legend Double Dagger -7.5 -8.5 92 31 17 16.1 100.38   -14 Snow
03:00 Legend Double Dagger -6.5 -7.6 92 31 21 8.1 100.33   -14 Snow
04:00 Legend Double Dagger -6.0 -7.1 92 31 18 6.4 100.33   -12 Snow
05:00 Legend Double Dagger -5.7 -6.9 91 31 21 16.1 100.32   -13 Snow
06:00 Legend Double Dagger -5.5 -6.9 90 30 18 16.1 100.29   -12 Snow
07:00 Legend Double Dagger -5.4 -6.8 90 30 21 14.5 100.25   -12 Snow
08:00 Legend Double Dagger -5.0 -6.4 90 30 21 16.1 100.22   -12 Snow
09:00 Legend Double Dagger -4.8 -6.1 91 30 17 16.1 100.19   -11 Snow
10:00 Legend Double Dagger -4.6 -5.9 91 30 18 9.7 100.14   -11 Snow
11:00 Legend Double Dagger -4.6 -6.0 90 30 21 14.5 100.10   -11 Snow
12:00 Legend Double Dagger -4.7 -6.2 89 30 21 16.1 100.07   -11 Snow
13:00 Legend Double Dagger -5.2 -6.6 90 30 22 16.1 100.04   -12 Snow
14:00 Legend Double Dagger -4.8 -6.3 89 31 22 16.1 100.02   -12 Snow
15:00 Legend Double Dagger -4.8 -6.2 90 31 21 16.1 100.01   -11 Snow
16:00 Legend Double Dagger -4.8 -6.3 89 32 18 16.1 100.00   -11 Snow
17:00 Legend Double Dagger -4.3 -6.0 88 27 9 16.1 99.98   -8 Snow
18:00 Legend Double Dagger -5.0 -6.7 88 26 9 16.1 99.97   -9 Snow
19:00 Legend Double Dagger -5.3 -6.8 89 29 17 16.1 99.94   -11 Snow
20:00 Legend Double Dagger -5.2 -6.7 89 21 5 16.1 99.95   -7 Snow
21:00 Legend Double Dagger -5.0 -6.4 90   0 2.4 99.92     Snow
22:00 Legend Double Dagger -6.0 -7.4 90   0 16.1 99.88     LegendNANA
23:00 Legend Double Dagger -6.6 -8.5 86 15 15 16.1 99.85   -13 LegendNANA

Notes on Data Quality.

Legend

  • E = Estimated
  • M = Missing
  • NA = Not Available
  • ‡ = Partner data that is not subject to review by the National Climate Archives
Date modified: